Location: Unspecified
(0.0000°N, 0.0000°E)
Time: 11:52:23
(UTC+02:00)

DFH-1 - Visible Passes

Search period start: 26 April 2019 00:00
Search period end: 06 May 2019 00:00
Orbit: 434 x 2030 km, 68.4° (Epoch: 25 April)

Date Brightness Start Highest point End Pass type
(mag) Time Alt. Az. Time Alt. Az. Time Alt. Az.
26 Apr 9.0 07:33:05 10° S 07:45:06 67° ESE 07:55:26 10° NNE visible
27 Apr 10.9 05:41:30 10° ESE 05:42:57 10° ESE 05:44:24 10° ESE visible
27 Apr 8.9 07:24:54 10° S 07:36:58 70° ESE 07:47:17 10° NNE visible
28 Apr 10.7 05:31:39 10° SE 05:34:51 11° ESE 05:37:57 10° E visible
28 Apr 8.8 07:16:44 10° S 07:28:50 74° ESE 07:39:06 10° NNE visible
29 Apr 10.7 05:22:30 10° SE 05:26:44 12° ESE 05:30:50 10° E visible
29 Apr 8.7 07:08:34 10° SSW 07:20:43 77° ESE 07:30:56 10° NNE visible
30 Apr 10.6 05:13:35 10° SE 05:18:38 14° ESE 05:23:27 10° E visible
30 Apr 8.6 07:00:25 10° SSW 07:12:35 81° ESE 07:22:45 10° NNE visible
01 May 10.5 05:04:48 10° SE 05:10:32 15° ESE 05:15:57 10° E visible
01 May 8.5 06:52:17 10° SSW 07:04:27 85° ESE 07:14:33 10° NNE visible
02 May 10.4 04:56:08 10° SE 05:02:26 16° ESE 05:08:21 10° E visible
02 May 8.4 06:44:09 10° SSW 06:56:19 89° ESE 07:06:23 10° NNE visible
03 May 10.3 04:47:31 10° SSE 04:54:20 17° ESE 05:00:40 10° ENE visible
03 May 8.4 06:36:03 10° SSW 06:48:12 87° WNW 06:58:09 10° NNE visible
04 May 10.2 04:38:58 10° SSE 04:46:14 18° ESE 04:52:56 10° ENE visible
04 May 8.3 06:27:57 10° SSW 06:40:04 84° WNW 06:49:57 10° NNE visible
05 May 10.1 04:30:27 10° SSE 04:38:08 20° ESE 04:45:09 10° ENE visible
05 May 8.3 06:19:52 10° SSW 06:31:56 80° WNW 06:41:44 10° NNE visible
